Ozark, AL

8:45 AM CDT on August 16, 2017 (GMT -0500)
Cairns Army Air Field

Weather History for KOZR - October, 2013

Change the Weather History Date:

Tuesday, October 22, 2013

  Actual Average Record
Temperature  
Mean Temperature 67 °F -  
Max Temperature 73 °F 75 °F 86 °F (2003)
Min Temperature 60 °F 51 °F 38 °F (2011)
Cooling Degree Days 2    
Growing Degree Days 17 (Base 50)    
Moisture  
Dew Point 63 °F    
Average Humidity 91    
Maximum Humidity 100    
Minimum Humidity 63    
Precipitation  
Precipitation 0.03 in - - ()
Sea Level Pressure  
Sea Level Pressure 29.96 in    
Wind  
Wind Speed 3 mph (North)    
Max Wind Speed 10 mph    
Max Gust Speed -    
Visibility 9 miles    
Events Rain    
Averages and records for this station are not official NWS values.
T = Trace of Precipitation, MM = Missing Value Source: NWS Daily Summary

Daily Weather History Graph

Daily Weather History Graph

Search for Another Location

Airport or City:

Trip Planner

Search our weather history database for the weather conditions in past years. The results will help you decide how hot, cold, wet, or windy it might be!

Date:

Astronomy

Oct. 22, 2013 Rise Set
Actual Time 6:50 AM CDT 6:03 PM CDT
Civil Twilight 6:26 AM CDT 6:27 PM CDT
Nautical Twilight 5:57 AM CDT 6:56 PM CDT
Astronomical Twilight 5:29 AM CDT 7:24 PM CDT
Moon 8:52 PM CDT (10/22) 10:08 AM CDT (10/22)
Length of Visible Light 12h 01m
Length of Day
11h 12m
Waning Gibbous, 86% of the Moon is Illuminated
Oct 22
Waning Gibbous
Oct 26
Last Quarter
Nov 3
New
Nov 9
First Quarter
Nov 17
Full

Hourly Weather History & Observations

Time (CDT) Temp. Dew Point Humidity Pressure Visibility Wind Dir Wind Speed Gust Speed Precip Events Conditions
12:33 AM 64.4 °F 62.6 °F 94% 30.01 in 10.0 mi Calm Calm - N/A Rain Light Rain
12:58 AM 65.3 °F 63.7 °F 94% 29.99 in 10.0 mi NNE 4.6 mph - 0.00 in Rain Light Rain
1:18 AM 64.4 °F 62.6 °F 94% 29.99 in 10.0 mi ENE 3.5 mph - N/A   Partly Cloudy
1:22 AM 64.4 °F 62.6 °F 94% 29.98 in 10.0 mi ENE 4.6 mph - N/A   Light Drizzle
1:42 AM 64.4 °F 62.6 °F 94% 29.96 in 10.0 mi ENE 6.9 mph - N/A   Partly Cloudy
1:54 AM 64.4 °F 62.6 °F 94% 29.98 in 10.0 mi SE 4.6 mph - N/A Rain Light Rain
1:58 AM 64.2 °F 63.0 °F 96% 29.99 in 10.0 mi SE 4.6 mph - 0.01 in Rain Light Rain
2:13 AM 64.4 °F 62.6 °F 94% 29.99 in 10.0 mi West 2.3 mph - N/A   Partly Cloudy
2:16 AM 64.4 °F 62.6 °F 94% 29.99 in 10.0 mi West 2.3 mph - N/A   Light Drizzle
2:58 AM 64.0 °F 63.1 °F 97% 29.99 in 8.0 mi Calm Calm - 0.00 in Rain Light Rain
3:58 AM 64.2 °F 63.7 °F 98% 29.97 in 8.0 mi NNW 2.3 mph - 0.01 in Rain Light Rain
4:33 AM 64.4 °F 64.4 °F 100% 29.98 in 10.0 mi North 2.3 mph - N/A   Scattered Clouds
4:34 AM 64.4 °F 64.4 °F 100% 29.98 in 10.0 mi North 2.3 mph - N/A   Light Drizzle
4:58 AM 64.4 °F 63.9 °F 98% 29.99 in 9.0 mi NNW 2.3 mph - 0.00 in   Light Drizzle
5:23 AM 64.4 °F 62.6 °F 94% 29.97 in 6.0 mi SE 2.3 mph - N/A   Partly Cloudy
5:33 AM 64.4 °F 64.4 °F 100% 29.98 in 6.0 mi NW 10.4 mph - N/A   Partly Cloudy
5:35 AM 64.4 °F 64.4 °F 100% 29.98 in 6.0 mi Variable 5.8 mph - N/A   Light Drizzle
5:58 AM 63.9 °F 63.3 °F 98% 29.99 in 8.0 mi NNW 2.3 mph - 0.01 in Rain Light Rain
6:18 AM 64.4 °F 62.6 °F 94% 29.98 in 9.0 mi NNW 2.3 mph - N/A   Partly Cloudy
6:58 AM 64.0 °F 63.3 °F 97% 29.99 in 6.0 mi NW 1.2 mph - 0.00 in   Overcast
7:58 AM 64.2 °F 63.7 °F 98% 29.99 in 9.0 mi NNE 2.3 mph - N/A   Overcast
8:58 AM 64.6 °F 64.0 °F 98% 29.99 in 7.0 mi NNE 2.3 mph - N/A   Overcast
9:16 AM 64.4 °F 64.4 °F 100% 29.98 in 9.0 mi North 3.5 mph - N/A   Overcast
9:31 AM 66.2 °F 64.4 °F 94% 29.99 in 9.0 mi NE 4.6 mph - N/A   Overcast
9:41 AM 66.2 °F 64.4 °F 94% 29.98 in 9.0 mi NNE 5.8 mph - N/A   Overcast
9:51 AM 66.2 °F 66.2 °F 100% 29.98 in 8.0 mi NE 4.6 mph - N/A   Overcast
9:58 AM 66.2 °F 66.2 °F 100% 29.99 in 8.0 mi NE 4.6 mph - N/A   Overcast
10:58 AM 67.1 °F 65.7 °F 95% 29.96 in 10.0 mi NNE 1.2 mph - N/A   Overcast
11:58 AM 72.0 °F 63.9 °F 76% 29.94 in 10.0 mi Variable 2.3 mph - N/A   Mostly Cloudy
12:58 PM 72.7 °F 59.4 °F 63% 29.92 in 10.0 mi NW 4.6 mph - N/A   Scattered Clouds
1:58 PM 72.5 °F 60.6 °F 66% 29.89 in 10.0 mi Variable 4.6 mph - N/A   Partly Cloudy
2:58 PM 71.6 °F 62.1 °F 72% 29.91 in 10.0 mi NW 2.3 mph - N/A   Clear
3:58 PM 71.2 °F 62.2 °F 73% 29.89 in 10.0 mi NW 3.5 mph - N/A   Clear
4:58 PM 72.1 °F 59.7 °F 65% 29.89 in 10.0 mi Calm Calm - N/A   Clear
5:58 PM 70.0 °F 60.3 °F 71% 29.88 in 10.0 mi South 3.5 mph - N/A   Clear
6:58 PM 65.5 °F 61.5 °F 87% 29.88 in 10.0 mi Calm Calm - N/A   Clear
7:58 PM 64.8 °F 61.5 °F 89% 29.90 in 10.0 mi WSW 4.6 mph - N/A   Clear
8:58 PM 63.5 °F 61.5 °F 93% 29.91 in 10.0 mi WSW 5.8 mph - N/A   Clear
9:58 PM 62.6 °F 61.2 °F 95% 29.91 in 10.0 mi West 4.6 mph - N/A   Clear
10:58 PM 62.1 °F 57.4 °F 85% 29.93 in 10.0 mi WNW 4.6 mph - N/A   Clear
11:58 PM 60.8 °F 54.5 °F 80% 29.93 in 10.0 mi NW 9.2 mph - N/A   Clear